Location: Unspecified
(0.0000°N, 0.0000°E)
Time: 18:10:17
(UTC+00:00)

Vanguard 2 - Pass Details

Date: 10 December 2017
Orbit: 552 x 2940 km, 32.9° (Epoch: 16 January)

Event Time Altitude Azimuth Distance (km) Brightness Sun altitude
Rises 13:49:59 0° 249° (WSW) 5,899 12.6 53.4°
Reaches altitude 10° 13:54:49 10° 256° (WSW) 4,502 12.2 52.5°
Maximum altitude 14:05:05 37° 319° (NW) 2,049 10.2 50.5°
Drops below altitude 10° 14:11:33 10° 26° (NNE) 2,822 10.2 49.2°
Sets 14:13:55 0° 35° (NE) 3,526 10.5 48.8°
